Fulton, NY

3:08 PM EST on January 23, 2017 (GMT -0500)
Oswego County

Weather History for KFZY - November, 2013

Change the Weather History Date:

Sunday, November 24, 2013

  Actual Average (KSYR) Record (KSYR)
Temperature  
Mean Temperature 21 °F -  
Max Temperature 25 °F 44 °F 72 °F (2014)
Min Temperature 17 °F 31 °F 5 °F (1956)
Degree Days  
Heating Degree Days 44    
Moisture  
Dew Point 10 °F    
Average Humidity 64    
Maximum Humidity 80    
Minimum Humidity 46    
Precipitation  
Precipitation 0.02 in - - ()
Sea Level Pressure  
Sea Level Pressure 30.23 in    
Wind  
Wind Speed 15 mph (NW)    
Max Wind Speed 21 mph    
Max Gust Speed 32 mph    
Visibility 7 miles    
Events Snow    
Averages and records for this station are not official NWS values.
T = Trace of Precipitation, MM = Missing Value Source: NWS Daily Summary

Daily Weather History Graph

Daily Weather History Graph

Search for Another Location

Airport or City:

Trip Planner

Search our weather history database for the weather conditions in past years. The results will help you decide how hot, cold, wet, or windy it might be!

Date:

Astronomy

Nov. 24, 2013 Rise Set
Actual Time 7:10 AM EST 4:33 PM EST
Civil Twilight 6:38 AM EST 5:05 PM EST
Nautical Twilight 6:03 AM EST 5:40 PM EST
Astronomical Twilight 5:29 AM EST 6:14 PM EST
Moon 11:03 PM EST (11/24) 11:52 AM EST (11/24)
Length of Visible Light 10h 26m
Length of Day
9h 23m
Waning Gibbous, 61% of the Moon is Illuminated
Nov 24
Waning Gibbous
Nov 25
Last Quarter
Dec 2
New
Dec 9
First Quarter
Dec 17
Full

Hourly Weather History & Observations

Time (EST) Temp. Windchill Dew Point Humidity Pressure Visibility Wind Dir Wind Speed Gust Speed Precip Events Conditions
12:13 AM 19.4 °F 6.0 °F 12.2 °F 74% 30.07 in 2.0 mi NW 13.8 mph 20.7 mph 0.00 in Snow Light Snow
12:31 AM 19.4 °F 7.9 °F 14.0 °F 80% 30.07 in 1.5 mi NNW 10.4 mph 25.3 mph 0.00 in Snow Light Snow
12:38 AM 19.4 °F 5.0 °F 12.2 °F 74% 30.07 in 1.0 mi NNW 16.1 mph 27.6 mph 0.00 in Snow Light Snow
12:50 AM 19.4 °F 5.5 °F 12.2 °F 74% 30.08 in 1.5 mi NNW 15.0 mph 24.2 mph 0.00 in Snow Light Snow
12:54 AM 19.0 °F 5.6 °F 12.9 °F 77% 30.10 in 1.2 mi NW 13.8 mph 23.0 mph 0.00 in Snow Light Snow
1:10 AM 19.4 °F 4.1 °F 12.2 °F 74% 30.08 in 2.0 mi NW 18.4 mph 28.8 mph 0.00 in Snow Light Snow
1:18 AM 19.4 °F 4.5 °F 10.4 °F 68% 30.08 in 5.0 mi NW 17.3 mph 25.3 mph 0.00 in Snow Light Snow
1:49 AM 19.4 °F 5.0 °F 10.4 °F 68% 30.10 in 2.5 mi NW 16.1 mph 24.2 mph 0.00 in Snow Light Snow
1:54 AM 19.0 °F 3.6 °F 10.9 °F 71% 30.13 in 2.0 mi NW 18.4 mph 26.5 mph 0.00 in Snow Light Snow
2:21 AM 19.4 °F 5.0 °F 10.4 °F 68% 30.12 in 3.0 mi NW 16.1 mph 23.0 mph 0.00 in Snow Light Snow
2:34 AM 17.6 °F 2.2 °F 10.4 °F 73% 30.12 in 2.0 mi NNW 17.3 mph 24.2 mph 0.00 in Snow Light Snow
2:43 AM 17.6 °F 2.2 °F 10.4 °F 73% 30.12 in 7.0 mi NW 17.3 mph 27.6 mph 0.00 in Snow Light Snow
2:54 AM 18.0 °F 2.6 °F 10.0 °F 71% 30.15 in 6.0 mi NW 17.3 mph 25.3 mph 0.00 in Snow Light Snow
3:54 AM 18.0 °F 3.1 °F 10.0 °F 71% 30.16 in 4.0 mi NW 16.1 mph - 0.00 in Snow Light Snow
4:54 AM 18.0 °F 3.1 °F 9.0 °F 68% 30.18 in 9.0 mi NNW 16.1 mph 23.0 mph 0.00 in Snow Light Snow
5:01 AM 17.6 °F 3.7 °F 8.6 °F 68% 30.16 in 9.0 mi NNW 13.8 mph 23.0 mph 0.00 in Snow Light Snow
5:11 AM 19.4 °F 4.5 °F 8.6 °F 63% 30.16 in 9.0 mi NNW 17.3 mph 23.0 mph 0.00 in   Overcast
5:41 AM 19.4 °F 6.6 °F 8.6 °F 63% 30.17 in 9.0 mi NNW 12.7 mph 24.2 mph 0.00 in   Overcast
5:54 AM 19.0 °F 6.8 °F 9.0 °F 65% 30.20 in 9.0 mi NNW 11.5 mph - 0.00 in Snow Light Snow
6:04 AM 19.4 °F 4.5 °F 8.6 °F 63% 30.18 in 10.0 mi NW 17.3 mph 24.2 mph 0.00 in   Overcast
6:54 AM 19.0 °F 6.1 °F 9.0 °F 65% 30.22 in 10.0 mi NNW 12.7 mph 23.0 mph 0.00 in   Overcast
7:54 AM 19.0 °F 5.6 °F 9.0 °F 65% 30.26 in 10.0 mi NNW 13.8 mph - 0.00 in   Overcast
8:54 AM 19.9 °F 6.2 °F 10.0 °F 65% 30.29 in 10.0 mi NNW 15.0 mph 21.9 mph N/A   Overcast
9:23 AM 21.2 °F 9.5 °F 10.4 °F 63% 30.28 in 10.0 mi NNW 11.5 mph 19.6 mph N/A   Overcast
9:54 AM 21.9 °F 9.2 °F 10.9 °F 63% 30.31 in 10.0 mi NW 13.8 mph 21.9 mph N/A   Mostly Cloudy
10:02 AM 21.2 °F 7.3 °F 10.4 °F 63% 30.29 in 10.0 mi NNW 16.1 mph 24.2 mph N/A   Mostly Cloudy
10:54 AM 21.9 °F 8.2 °F 12.0 °F 66% 30.32 in 10.0 mi NW 16.1 mph 21.9 mph N/A   Overcast
11:33 AM 23.0 °F 10.1 °F 12.2 °F 63% 30.29 in 10.0 mi NW 15.0 mph 25.3 mph N/A   Mostly Cloudy
11:54 AM 25.0 °F 10.9 °F 12.9 °F 60% 30.31 in 10.0 mi NW 19.6 mph 27.6 mph N/A   Mostly Cloudy
12:54 PM 24.1 °F 11.0 °F 10.9 °F 57% 30.30 in 10.0 mi NW 16.1 mph 23.0 mph N/A   Mostly Cloudy
1:54 PM 24.1 °F 12.0 °F 12.0 °F 60% 30.31 in 10.0 mi WNW 13.8 mph 26.5 mph N/A   Overcast
2:54 PM 24.1 °F 10.1 °F 12.0 °F 60% 30.31 in 7.0 mi WNW 18.4 mph 25.3 mph 0.01 in Snow Light Snow
3:54 PM 24.1 °F 12.0 °F 9.0 °F 53% 30.32 in 10.0 mi WNW 13.8 mph 25.3 mph 0.01 in   Overcast
4:54 PM 24.1 °F 9.8 °F 7.0 °F 48% 30.33 in 9.0 mi WNW 19.6 mph 32.2 mph 0.00 in   Overcast
5:54 PM 23.0 °F 8.3 °F 5.0 °F 46% 30.35 in 9.0 mi NW 19.6 mph 29.9 mph 0.00 in   Overcast
6:54 PM 23.0 °F 9.2 °F 8.1 °F 53% 30.36 in 7.0 mi WNW 17.3 mph 27.6 mph 0.00 in Snow Light Snow
7:54 PM 23.0 °F 8.0 °F 7.0 °F 50% 30.37 in 10.0 mi WNW 20.7 mph 28.8 mph 0.00 in   Overcast
8:54 PM 21.9 °F 11.7 °F 10.9 °F 63% 30.38 in 6.0 mi NNW 9.2 mph 24.2 mph 0.00 in Snow Light Snow
9:54 PM 21.9 °F 7.8 °F 9.0 °F 58% 30.37 in 10.0 mi NW 17.3 mph 27.6 mph 0.00 in   Overcast
10:49 PM 21.2 °F 7.8 °F 10.4 °F 63% 30.36 in 6.0 mi NW 15.0 mph 23.0 mph 0.00 in Snow Light Snow
10:54 PM 21.9 °F 9.2 °F 10.0 °F 60% 30.39 in 5.0 mi NNW 13.8 mph 20.7 mph 0.00 in Snow Light Snow
11:38 PM 21.2 °F 10.9 °F 8.6 °F 58% 30.35 in 10.0 mi NNW 9.2 mph 20.7 mph 0.00 in   Overcast
11:54 PM 21.0 °F 11.4 °F 9.0 °F 60% 30.38 in 10.0 mi NW 8.1 mph - 0.00 in   Overcast